Weather History for Washington, GA

Change the Weather History Date:

Thursday, February 9, 2012

  Actual Average (KDBN) Record (KDBN)
Temperature  
Mean Temperature 45 °F -  
Max Temperature 55 °F 58 °F 83 °F (1957)
Min Temperature 35 °F 30 °F 15 °F (1933)
Degree Days  
Heating Degree Days 20    
Moisture  
Dew Point 35 °F    
Average Humidity 70    
Maximum Humidity 93    
Minimum Humidity 44    
Precipitation  
Precipitation 0.00 in - - ()
Sea Level Pressure  
Sea Level Pressure 30.22 in    
Wind  
Wind Speed 4 mph ()    
Max Wind Speed 8 mph    
Max Gust Speed -    
Visibility 9.9 miles    
Events      
Averages and records for this station are not official NWS values.
T = Trace of Precipitation, MM = Missing Value Source: Averaged Metar Reports

Daily Weather History Graph

Daily Weather History Graph

Search for Another Location

Airport:

Trip Planner

Search our weather history database for the weather conditions in past years. The results will help you decide how hot, cold, wet, or windy it might be!

Date:

Astronomy

Feb. 09, 2012 Rise Set
Actual Time 7:21 AM EST 6:09 PM EST
Civil Twilight 6:56 AM EST 6:35 PM EST
Nautical Twilight 6:26 AM EST 7:04 PM EST
Astronomical Twilight 5:57 AM EST 7:33 PM EST
Moon 8:26 PM EST (2/9) 8:05 AM EST (2/9)
Length of Visible Light 11h 39m
Length of Day
10h 47m
Waning Gibbous, 96% of the Moon is Illuminated
Feb 9
Waning Gibbous
Feb 14
Last Quarter
Feb 21
New
Feb 29
First Quarter
Mar 8
Full

Hourly Weather History & Observations

Time (EST) Temp. Windchill Dew Point Humidity Pressure Visibility Wind Dir Wind Speed Gust Speed Precip Events Conditions
12:15 AM 44.6 °F 40.2 °F 33.8 °F 66% 30.20 in 10.0 mi WNW 8.1 mph - N/A   Clear
12:35 AM 44.6 °F 40.7 °F 33.8 °F 66% 30.20 in 10.0 mi NW 6.9 mph - N/A   Clear
12:55 AM 42.8 °F 38.6 °F 32.0 °F 66% 30.20 in 10.0 mi WNW 6.9 mph - N/A   Clear
1:15 AM 42.8 °F 38.6 °F 32.0 °F 66% 30.21 in 10.0 mi NW 6.9 mph - N/A   Clear
1:35 AM 42.8 °F 38.0 °F 32.0 °F 66% 30.20 in 10.0 mi NW 8.1 mph - N/A   Clear
1:55 AM 42.8 °F 38.6 °F 32.0 °F 66% 30.21 in 10.0 mi NW 6.9 mph - N/A   Clear
2:15 AM 42.8 °F 39.3 °F 33.8 °F 70% 30.21 in 10.0 mi NW 5.8 mph - N/A   Clear
2:35 AM 42.8 °F 39.3 °F 33.8 °F 70% 30.21 in 10.0 mi NW 5.8 mph - N/A   Clear
2:55 AM 41.0 °F 38.0 °F 33.8 °F 76% 30.21 in 10.0 mi NNW 4.6 mph - N/A   Clear
3:15 AM 41.0 °F 37.1 °F 32.0 °F 70% 30.21 in 10.0 mi NW 5.8 mph - N/A   Clear
4:15 AM 41.0 °F 38.0 °F 33.8 °F 76% 30.22 in 10.0 mi NW 4.6 mph - N/A   Clear
4:35 AM 41.0 °F - 33.8 °F 76% 30.22 in 10.0 mi Calm Calm - N/A   Clear
4:55 AM 35.6 °F - 33.8 °F 93% 30.22 in 10.0 mi Calm Calm - N/A   Clear
5:15 AM 35.6 °F - 33.8 °F 93% 30.22 in 10.0 mi Calm Calm - N/A   Clear
5:35 AM 35.6 °F - 33.8 °F 93% 30.23 in 10.0 mi Calm Calm - N/A   Clear
5:55 AM 35.6 °F - 33.8 °F 93% 30.23 in 10.0 mi Calm Calm - N/A   Clear
6:15 AM 35.6 °F - 33.8 °F 93% 30.24 in 10.0 mi Calm Calm - N/A   Clear
6:35 AM 35.6 °F 31.7 °F 33.8 °F 93% 30.24 in 10.0 mi NW 4.6 mph - N/A   Clear
6:55 AM 35.6 °F 32.8 °F 33.8 °F 93% 30.24 in 10.0 mi NNW 3.5 mph - N/A   Clear
7:15 AM 35.6 °F - 33.8 °F 93% 30.25 in 10.0 mi Calm Calm - N/A   Clear
7:35 AM 35.6 °F - 33.8 °F 93% 30.26 in 7.0 mi Calm Calm - N/A   Clear
7:55 AM 35.6 °F - 33.8 °F 93% 30.27 in 7.0 mi Calm Calm - N/A   Clear
8:15 AM 35.6 °F - 33.8 °F 93% 30.27 in 7.0 mi Calm Calm - N/A   Clear
8:35 AM 41.0 °F 39.0 °F 35.6 °F 81% 30.28 in 10.0 mi North 3.5 mph - N/A   Clear
8:55 AM 42.8 °F - 33.8 °F 70% 30.28 in 10.0 mi Calm Calm - N/A   Clear
9:15 AM 44.6 °F - 35.6 °F 71% 30.28 in 10.0 mi Calm Calm - N/A   Clear
9:35 AM 44.6 °F 42.2 °F 33.8 °F 66% 30.29 in 10.0 mi East 4.6 mph - N/A   Clear
9:55 AM 44.6 °F 40.2 °F 33.8 °F 66% 30.30 in 10.0 mi East 8.1 mph - N/A   Clear
10:15 AM 44.6 °F 40.7 °F 33.8 °F 66% 30.29 in 10.0 mi East 6.9 mph - N/A   Clear
10:35 AM 46.4 °F 42.4 °F 32.0 °F 57% 30.30 in 10.0 mi East 8.1 mph - N/A   Clear
10:55 AM 46.4 °F 42.9 °F 32.0 °F 57% 30.30 in 10.0 mi East 6.9 mph - N/A   Clear
11:15 AM 46.4 °F 42.9 °F 32.0 °F 57% 30.29 in 10.0 mi East 6.9 mph - N/A   Clear
11:35 AM 50.0 °F - 32.0 °F 50% 30.29 in 10.0 mi ENE 3.5 mph - N/A   Clear
11:55 AM 50.0 °F - 33.8 °F 54% 30.29 in 10.0 mi SE 4.6 mph - N/A   Clear
12:15 PM 50.0 °F - 33.8 °F 54% 30.28 in 10.0 mi South 5.8 mph - N/A   Clear
12:35 PM 51.8 °F - 35.6 °F 54% 30.27 in 10.0 mi SSE 3.5 mph - N/A   Clear
12:55 PM 53.6 °F - 35.6 °F 51% 30.25 in 10.0 mi Calm Calm - N/A   Clear
1:15 PM 55.4 °F - 35.6 °F 47% 30.23 in 10.0 mi Calm Calm - N/A   Clear
1:35 PM 55.4 °F - 35.6 °F 47% 30.22 in 10.0 mi ESE 3.5 mph - N/A   Clear
1:55 PM 55.4 °F - 35.6 °F 47% 30.21 in 10.0 mi Calm Calm - N/A   Clear
2:15 PM 55.4 °F - 33.8 °F 44% 30.20 in 10.0 mi West 4.6 mph - N/A   Clear
2:35 PM 55.4 °F - 33.8 °F 44% 30.20 in 10.0 mi South 6.9 mph - N/A   Clear
2:55 PM 55.4 °F - 33.8 °F 44% 30.20 in 10.0 mi SSE 6.9 mph - N/A   Clear
3:15 PM 55.4 °F - 33.8 °F 44% 30.19 in 10.0 mi SE 4.6 mph - N/A   Clear
3:35 PM 55.4 °F - 33.8 °F 44% 30.19 in 10.0 mi South 3.5 mph - N/A   Clear
3:55 PM 55.4 °F - 33.8 °F 44% 30.19 in 10.0 mi SSE 5.8 mph - N/A   Clear
4:15 PM 55.4 °F - 33.8 °F 44% 30.19 in 10.0 mi South 3.5 mph - N/A   Clear
4:35 PM 55.4 °F - 33.8 °F 44% 30.19 in 10.0 mi SSE 3.5 mph - N/A   Clear
4:55 PM 55.4 °F - 33.8 °F 44% 30.19 in 10.0 mi Calm Calm - N/A   Clear
5:15 PM 55.4 °F - 33.8 °F 44% 30.19 in 10.0 mi Calm Calm - N/A   Clear
5:35 PM 53.6 °F - 37.4 °F 54% 30.19 in 10.0 mi Calm Calm - N/A   Clear
5:55 PM 51.8 °F - 41.0 °F 67% 30.20 in 10.0 mi Calm Calm - N/A   Clear
6:15 PM 50.0 °F - 39.2 °F 66% 30.19 in 10.0 mi Calm Calm - N/A   Clear
6:35 PM 46.4 °F - 39.2 °F 76% 30.20 in 10.0 mi Calm Calm - N/A   Clear
6:55 PM 46.4 °F - 37.4 °F 71% 30.19 in 10.0 mi Calm Calm - N/A   Clear
7:15 PM 44.6 °F - 41.0 °F 87% 30.20 in 10.0 mi Calm Calm - N/A   Clear
7:35 PM 42.8 °F 41.1 °F 37.4 °F 81% 30.20 in 10.0 mi South 3.5 mph - N/A   Clear
7:55 PM 44.6 °F - 39.2 °F 81% 30.19 in 10.0 mi Calm Calm - N/A   Clear
8:15 PM 42.8 °F - 37.4 °F 81% 30.19 in 10.0 mi Calm Calm - N/A   Clear
8:35 PM 42.8 °F - 39.2 °F 87% 30.20 in 10.0 mi Calm Calm - N/A   Clear
8:55 PM 42.8 °F - 37.4 °F 81% 30.20 in 10.0 mi Calm Calm - N/A   Clear
9:15 PM 41.0 °F - 37.4 °F 87% 30.20 in 10.0 mi Calm Calm - N/A   Clear
9:35 PM 41.0 °F - 37.4 °F 87% 30.21 in 10.0 mi Calm Calm - N/A   Clear
9:55 PM 41.0 °F - 37.4 °F 87% 30.20 in 10.0 mi Calm Calm - N/A   Clear
10:15 PM 41.0 °F - 37.4 °F 87% 30.20 in 10.0 mi Calm Calm - N/A   Clear
10:35 PM 41.0 °F - 37.4 °F 87% 30.20 in 10.0 mi Calm Calm - N/A   Clear
10:55 PM 41.0 °F 39.0 °F 37.4 °F 87% 30.19 in 10.0 mi South 3.5 mph - N/A   Clear
11:15 PM 41.0 °F 38.0 °F 39.2 °F 93% 30.19 in 10.0 mi South 4.6 mph - N/A   Clear
11:35 PM 41.0 °F 39.0 °F 35.6 °F 81% 30.20 in 10.0 mi SSW 3.5 mph - N/A   Clear
11:55 PM 41.0 °F 39.0 °F 35.6 °F 81% 30.20 in 10.0 mi SW 3.5 mph - N/A   Clear